STARLINK-31227, 59026

Orbit data source: Space-Track

STARLINK-31227, 59026 is a payload satellite owned by SpaceX/Seattle (US) in LEO that was launched on Sun, 25 Feb 2024 UTC via an FALCON 9 launch vehicle from the Air Force Eastern Test Range (AFETR). Payload-class satellites include a variety of spacecraft equipped with specific instruments for various scientific and technological missions. These include communications satellites like Starlink; space stations such as the ISS; scientific satellites like the Hubble; Earth observation satellites from companies like Planet Labs, Umbra, and HawkEye 360; GPS; miniature CubeSats for education and research; and military/defense satellites.

Loading next visibility...
Identifier
59026, 2024-038D
Orbit
LEO
Country
Flag of USUS
Related business
Manufacturer
SpaceX/Seattle
Mission
Operational Commercial Communications
Bus & Motor
STARLINK V2M, Unknown motor
Mass
730 kg wet, ~700 kg dry
Launch date (UTC)
2024-02-25 (2 years ago)
Launch vehicle
FALCON 9
Launch site
Air Force Eastern Test Range (AFETR)
Object type
Payload
Rocket body
Debris
Shape & HBR
Box + 2 Pan, 17.7 m
Radar Cross Section
33.884 m², Large (>1 m²)

Expand to show TLE details & history
Last TLE update: 9 hours ago

TLE from 9 hours ago
0 STARLINK-31227
1 59026U 24038D   25350.80774078  .00000754  00000-0  36931-4 0  9997
2 59026  43.0017 134.9897 0001530 279.7417  80.3262 15.27574630102088
Epoch: 2025-12-16T19:23Z
TLE epoch observation values (Epoch: 2025-12-16T19:23:08.803Z)
Latitude
-0°
Longitude
118.51637°
Altitude
482.665 km
Speed
7.626 km/s
True Right ascension
08h 59m 57s
True Declination
0° 00' 00"
Sunlit
Object was in full shadow at epoch
Visualization orbit readout
Latitude
Unknown
Longitude
Unknown
Altitude
Unknown
Speed
Unknown
Apparent Right ascension
Unknown
Apparent Declination
Unknown
Sunlit
N/A
Visualization observer readout
Local Sidereal Time
02:44:05
Azimuth
Unknown
Elevation
Unknown
Doppler factor
Unknown
Orbital elements
Apogee altitude
486.06 km
Perigee altitude
483.96 km
Semi-major axis
6,863.147 km
Eccentricity
0.00015
Inclination
43.0017°
RAAN
134.9897°
Arg. of periapsis
279.7417°
True anomaly
80.34348°
Mean anomaly
80.3262°
Eccentric anomaly
80.33484°
Mean motion
3.81732 °/min
Orbital period
94.31 mins
BSTAR
0.000036931
Loading maneuver chart data...
Computing Atmospheric mass density...
Loading historical data...
Loading historical data...
Loading historical data...
Loading historical data...
Loading historical data...
Loading historical data...
Loading historical data...

Documentation

Showing up to 5 results
|